Location: Erfurt
(50.9688°N, 11.0193°E)
Time: 02:56:53
(UTC+01:00)

N. Korean satellite - Visible Passes

Search period start: 25 November 2017 00:00
Search period end: 05 December 2017 00:00
Orbit: 460 x 514 km, 97.2° (Epoch: 24 November)

Date Brightness Start Highest point End Pass type
(mag) Time Alt. Az. Time Alt. Az. Time Alt. Az.
25 Nov 8.5 06:40:52 10° NNE 06:44:22 36° E 06:47:51 10° SSE visible
25 Nov 7.4 17:22:09 10° SE 17:25:17 29° ENE 17:28:30 10° N visible
25 Nov 8.9 18:55:51 10° SSW 18:58:49 25° W 19:01:52 10° NW visible
26 Nov 9.6 06:17:48 10° NE 06:20:43 21° E 06:23:38 10° SE visible
26 Nov 8.0 16:59:27 10° ESE 17:01:58 18° ENE 17:04:31 10° NNE visible
26 Nov 7.7 18:31:45 10° S 18:35:11 44° W 18:38:43 10° NNW visible
27 Nov 10.1 05:55:21 10° ENE 05:56:59 12° E 05:58:37 10° ESE visible
27 Nov 6.6 18:08:03 10° SSE 18:11:38 84° W 18:15:19 10° NNW visible
28 Nov 7.2 07:03:41 10° NNE 07:07:27 65° ESE 07:11:11 10° S visible
28 Nov 6.7 17:44:39 10° SSE 17:48:09 52° ENE 17:51:45 10° N visible
28 Nov 9.8 19:19:55 10° SW 19:22:01 15° W 19:24:09 10° NW visible
29 Nov 8.5 06:40:21 10° NNE 06:43:52 36° E 06:47:21 10° SSE visible
29 Nov 7.4 17:21:35 10° SE 17:24:45 30° ENE 17:28:00 10° N visible
29 Nov 8.9 18:55:15 10° SSW 18:58:17 25° W 19:01:23 10° NW visible
30 Nov 9.5 06:17:16 10° NE 06:20:12 21° E 06:23:06 10° SE visible
30 Nov 8.0 16:58:52 10° ESE 17:01:25 18° ENE 17:04:00 10° NNE visible
30 Nov 7.7 18:31:10 10° S 18:34:38 45° W 18:38:12 10° NNW visible
01 Dec 10.1 05:54:49 10° ENE 05:56:27 12° E 05:58:03 10° ESE visible
01 Dec 6.6 18:07:27 10° SSE 18:11:04 85° WSW 18:14:47 10° NNW visible
02 Dec 7.2 07:03:07 10° NNE 07:06:54 65° ESE 07:10:37 10° S visible
02 Dec 6.7 17:44:02 10° SSE 17:47:35 52° ENE 17:51:12 10° N visible
02 Dec 9.7 19:19:15 10° SW 19:21:26 15° W 19:23:38 10° NW visible
03 Dec 8.5 06:39:46 10° NNE 06:43:17 35° E 06:46:45 10° SSE visible
03 Dec 7.4 17:20:57 10° SE 17:24:09 30° ENE 17:27:26 10° N visible
03 Dec 8.9 18:54:36 10° SSW 18:57:42 26° W 19:00:50 10° NW visible
04 Dec 9.5 06:16:41 10° NE 06:19:36 21° E 06:22:29 10° SE visible
04 Dec 8.0 16:58:14 10° ESE 17:00:49 18° ENE 17:03:26 10° NNE visible
04 Dec 7.7 18:30:31 10° S 18:34:01 45° W 18:37:38 10° NNW visible
